Station Historical Data
Daily Summary for May 19, 2012 Units:  English    Metric   Both
« Previous Day
Next Day »
Daily Weekly Monthly Yearly Custom
  High: Low: Average:
Temperature: 84.9 °F 63.0 °F 72.8 °F
Dew Point: 67.1 °F 60.0 °F 63 °F
Humidity: 92% 47% 73%
Wind Speed: 11.0mph 0.0mph 2.6mph
Wind Gust: 13.0mph - -
Wind- - SSE
Pressure: 30.09 in 29.97 in -
Precipitation: 0.00 in    
Historical Graphs
 
 
Tabular Data for May 19, 2012
Time Temperature Dew Point Pressure Wind Wind Speed Wind Gust Humidity Rainfall Rate (Hourly) Conditions
00:00 66.2 °F 61.9 °F 29.97 in Calm   1.0 mph 86% 0.00 in
00:01 66.1 °F 61.8 °F 29.97 in Calm   1.0 mph 86% 0.00 in
00:06 65.8 °F 61.8 °F 29.98 in NW 1.0 mph 1.0 mph 87% 0.00 in
00:11 65.5 °F 61.5 °F 29.97 in Calm   1.0 mph 87% 0.00 in
00:16 65.4 °F 61.8 °F 29.98 in NW 1.0 mph 1.0 mph 88% 0.00 in
00:21 65.3 °F 61.7 °F 29.98 in Calm     88% 0.00 in
00:26 65.0 °F 61.4 °F 29.98 in NW 1.0 mph 1.0 mph 88% 0.00 in
00:31 64.9 °F 61.6 °F 29.98 in NNE 2.0 mph 2.0 mph 89% 0.00 in
00:36 65.2 °F 61.9 °F 29.99 in ENE 1.0 mph 1.0 mph 89% 0.00 in
00:41 65.4 °F 61.8 °F 29.98 in ESE 1.0 mph 4.0 mph 88% 0.00 in
00:46 65.6 °F 62.0 °F 29.98 in ESE 1.0 mph 1.0 mph 88% 0.00 in
00:51 65.8 °F 61.8 °F 29.99 in ESE 1.0 mph 2.0 mph 87% 0.00 in
00:56 65.8 °F 62.2 °F 29.99 in SE 1.0 mph 2.0 mph 88% 0.00 in
01:01 65.8 °F 61.8 °F 29.99 in SE 1.0 mph 1.0 mph 87% 0.00 in
01:06 65.7 °F 62.0 °F 29.99 in Calm     88% 0.00 in
01:11 65.3 °F 61.7 °F 29.99 in Calm     88% 0.00 in
01:16 65.2 °F 61.9 °F 29.98 in Calm     89% 0.00 in
01:21 65.4 °F 62.1 °F 29.98 in Calm     89% 0.00 in
01:26 65.6 °F 62.0 °F 29.98 in ESE 3.0 mph 3.0 mph 88% 0.00 in
01:31 65.8 °F 61.8 °F 29.99 in East 2.0 mph 3.0 mph 87% 0.00 in
01:37 65.9 °F 61.9 °F 29.99 in East 2.0 mph 3.0 mph 87% 0.00 in
01:42 66.0 °F 61.7 °F 29.98 in East 1.0 mph 3.0 mph 86% 0.00 in
01:47 66.0 °F 61.4 °F 29.98 in East 1.0 mph 1.0 mph 85% 0.00 in
01:52 66.1 °F 61.5 °F 29.98 in ESE 1.0 mph 1.0 mph 85% 0.00 in
01:57 66.1 °F 61.1 °F 29.98 in ESE 2.0 mph 2.0 mph 84% 0.00 in
02:02 66.0 °F 61.0 °F 29.98 in ESE 1.0 mph 2.0 mph 84% 0.00 in
02:07 65.9 °F 60.9 °F 29.98 in ESE 1.0 mph 1.0 mph 84% 0.00 in
02:12 66.0 °F 61.0 °F 29.98 in Calm   1.0 mph 84% 0.00 in
02:17 65.8 °F 61.2 °F 29.98 in SE 1.0 mph 1.0 mph 85% 0.00 in
02:22 65.6 °F 61.0 °F 29.98 in East 2.0 mph 3.0 mph 85% 0.00 in
02:27 65.6 °F 61.0 °F 29.98 in ESE 1.0 mph 2.0 mph 85% 0.00 in
02:32 65.5 °F 60.9 °F 29.98 in ESE 1.0 mph 3.0 mph 85% 0.00 in
02:37 65.4 °F 60.5 °F 29.98 in ESE 2.0 mph 3.0 mph 84% 0.00 in
02:42 65.4 °F 60.5 °F 29.98 in ESE 2.0 mph 3.0 mph 84% 0.00 in
02:47 65.3 °F 60.3 °F 29.98 in SE 2.0 mph 2.0 mph 84% 0.00 in
02:52 65.1 °F 60.2 °F 29.98 in ESE 2.0 mph 2.0 mph 84% 0.00 in
02:57 65.1 °F 60.2 °F 29.98 in ESE 2.0 mph 3.0 mph 84% 0.00 in
03:02 65.1 °F 60.2 °F 29.98 in East 2.0 mph 3.0 mph 84% 0.00 in
03:07 65.2 °F 60.2 °F 29.98 in ESE 1.0 mph 3.0 mph 84% 0.00 in
03:12 65.1 °F 60.2 °F 29.98 in Calm   2.0 mph 84% 0.00 in
03:17 65.1 °F 60.2 °F 29.98 in Calm   2.0 mph 84% 0.00 in
03:22 64.9 °F 60.0 °F 29.98 in Calm   1.0 mph 84% 0.00 in
03:27 64.9 °F 60.3 °F 29.97 in Calm   2.0 mph 85% 0.00 in
03:32 64.9 °F 60.3 °F 29.98 in ESE 2.0 mph 2.0 mph 85% 0.00 in
03:37 64.8 °F 60.2 °F 29.98 in ESE 2.0 mph 2.0 mph 85% 0.00 in
03:42 64.7 °F 60.1 °F 29.98 in SE 1.0 mph 2.0 mph 85% 0.00 in
03:47 64.6 °F 60.3 °F 29.98 in ESE 1.0 mph 2.0 mph 86% 0.00 in
03:52 64.5 °F 60.2 °F 29.98 in ESE 1.0 mph 1.0 mph 86% 0.00 in
03:57 64.5 °F 60.2 °F 29.98 in ESE 2.0 mph 2.0 mph 86% 0.00 in
04:02 64.5 °F 60.2 °F 29.98 in ESE 2.0 mph 3.0 mph 86% 0.00 in
04:07 64.6 °F 60.3 °F 29.98 in East 1.0 mph 4.0 mph 86% 0.00 in
04:12 64.6 °F 60.3 °F 29.98 in ESE 2.0 mph 2.0 mph 86% 0.00 in
04:17 64.6 °F 60.3 °F 29.98 in SE 1.0 mph 2.0 mph 86% 0.00 in
04:22 64.6 °F 60.3 °F 29.98 in ESE 2.0 mph 3.0 mph 86% 0.00 in
04:27 64.7 °F 60.4 °F 29.98 in ESE 3.0 mph 4.0 mph 86% 0.00 in
04:32 64.9 °F 60.6 °F 29.98 in ESE 2.0 mph 3.0 mph 86% 0.00 in
04:37 64.9 °F 60.6 °F 29.98 in SE 2.0 mph 3.0 mph 86% 0.00 in
04:42 65.0 °F 60.7 °F 29.98 in SE 2.0 mph 4.0 mph 86% 0.00 in
04:48 65.1 °F 60.8 °F 29.98 in ESE 3.0 mph 4.0 mph 86% 0.00 in
04:53 65.2 °F 60.9 °F 29.99 in ESE 3.0 mph 4.0 mph 86% 0.00 in
04:58 65.0 °F 60.7 °F 29.98 in ESE 3.0 mph 4.0 mph 86% 0.00 in
05:03 64.9 °F 60.6 °F 29.99 in ESE 3.0 mph 4.0 mph 86% 0.00 in
05:08 64.8 °F 60.8 °F 29.99 in ESE 3.0 mph 4.0 mph 87% 0.00 in
05:13 64.7 °F 60.8 °F 29.99 in SE 3.0 mph 5.0 mph 87% 0.00 in
05:18 64.7 °F 60.8 °F 29.99 in SE 4.0 mph 5.0 mph 87% 0.00 in
05:23 64.6 °F 60.7 °F 29.99 in ESE 4.0 mph 5.0 mph 87% 0.00 in
05:28 64.5 °F 60.9 °F 29.99 in ESE 4.0 mph 5.0 mph 88% 0.00 in
05:33 64.3 °F 60.7 °F 30.00 in ESE 3.0 mph 4.0 mph 88% 0.00 in
05:38 64.1 °F 60.8 °F 30.00 in SE 3.0 mph 4.0 mph 89% 0.00 in
05:43 64.0 °F 60.7 °F 30.00 in SE 3.0 mph 5.0 mph 89% 0.00 in
05:48 63.9 °F 60.6 °F 30.00 in SE 2.0 mph 4.0 mph 89% 0.00 in
05:53 63.8 °F 60.8 °F 30.00 in ESE 3.0 mph 5.0 mph 90% 0.00 in
05:58 63.8 °F 60.8 °F 30.00 in SE 3.0 mph 5.0 mph 90% 0.00 in
06:03 63.6 °F 60.6 °F 30.00 in SE 3.0 mph 3.0 mph 90% 0.00 in
06:08 63.5 °F 60.5 °F 30.00 in SE 4.0 mph 6.0 mph 90% 0.00 in
06:13 63.5 °F 60.5 °F 30.00 in SE 5.0 mph 5.0 mph 90% 0.00 in
06:18 63.5 °F 60.5 °F 30.00 in ESE 3.0 mph 5.0 mph 90% 0.00 in
06:23 63.4 °F 60.7 °F 30.00 in SE 2.0 mph 4.0 mph 91% 0.00 in
06:28 63.4 °F 60.7 °F 30.01 in ESE 3.0 mph 5.0 mph 91% 0.00 in
06:33 63.4 °F 60.7 °F 30.01 in SE 2.0 mph 5.0 mph 91% 0.00 in
06:38 63.4 °F 60.7 °F 30.01 in ESE 2.0 mph 4.0 mph 91% 0.00 in
06:44 63.5 °F 60.8 °F 30.01 in ESE 3.0 mph 4.0 mph 91% 0.00 in
06:49 63.5 °F 60.8 °F 30.02 in ESE 3.0 mph 3.0 mph 91% 0.00 in
06:54 63.4 °F 60.7 °F 30.02 in ESE 2.0 mph 3.0 mph 91% 0.00 in
06:59 63.3 °F 60.6 °F 30.02 in ESE 2.0 mph 3.0 mph 91% 0.00 in
07:04 63.1 °F 60.4 °F 30.02 in ESE 2.0 mph 3.0 mph 91% 0.00 in
07:09 63.0 °F 60.3 °F 30.03 in ESE 3.0 mph 3.0 mph 91% 0.00 in
07:14 63.0 °F 60.6 °F 30.03 in SE 2.0 mph 3.0 mph 92% 0.00 in
07:19 63.1 °F 60.7 °F 30.03 in ESE 5.0 mph 5.0 mph 92% 0.00 in
07:24 63.5 °F 60.8 °F 30.03 in ESE 4.0 mph 4.0 mph 91% 0.00 in
07:29 64.0 °F 61.3 °F 30.03 in SE 3.0 mph 5.0 mph 91% 0.00 in
07:34 64.4 °F 61.4 °F 30.03 in ESE 3.0 mph 5.0 mph 90% 0.00 in
07:39 64.9 °F 61.9 °F 30.03 in SE 2.0 mph 4.0 mph 90% 0.00 in
07:44 65.3 °F 62.0 °F 30.04 in SE 4.0 mph 5.0 mph 89% 0.00 in
07:49 65.6 °F 62.3 °F 30.04 in ESE 3.0 mph 5.0 mph 89% 0.00 in
07:54 65.9 °F 62.2 °F 30.04 in SE 3.0 mph 4.0 mph 88% 0.00 in
07:59 66.2 °F 62.5 °F 30.04 in SE 3.0 mph 5.0 mph 88% 0.00 in
08:04 66.5 °F 62.5 °F 30.05 in SE 2.0 mph 5.0 mph 87% 0.00 in
08:09 66.8 °F 62.8 °F 30.05 in SSE 4.0 mph 5.0 mph 87% 0.00 in
08:14 67.3 °F 63.3 °F 30.05 in SE 3.0 mph 5.0 mph 87% 0.00 in
08:19 67.6 °F 62.9 °F 30.05 in SSE 5.0 mph 7.0 mph 85% 0.00 in
08:24 68.0 °F 63.0 °F 30.06 in SE 4.0 mph 5.0 mph 84% 0.00 in
08:29 68.4 °F 63.4 °F 30.06 in SE 6.0 mph 8.0 mph 84% 0.00 in
08:34 68.6 °F 63.2 °F 30.06 in SE 4.0 mph 6.0 mph 83% 0.00 in
08:39 69.0 °F 64.0 °F 30.06 in SSE 3.0 mph 5.0 mph 84% 0.00 in
08:44 69.2 °F 62.8 °F 30.06 in SSE 7.0 mph 11.0 mph 80% 0.00 in
08:49 69.3 °F 63.2 °F 30.06 in SE 7.0 mph 9.0 mph 81% 0.00 in
08:54 69.5 °F 63.1 °F 30.07 in SE 7.0 mph 9.0 mph 80% 0.00 in
08:59 69.7 °F 62.9 °F 30.07 in SE 6.0 mph 8.0 mph 79% 0.00 in
09:04 70.1 °F 63.3 °F 30.07 in South 7.0 mph 10.0 mph 79% 0.00 in
09:09 70.3 °F 63.1 °F 30.07 in SSE 7.0 mph 10.0 mph 78% 0.00 in
09:14 70.4 °F 62.8 °F 30.07 in SE 8.0 mph 10.0 mph 77% 0.00 in
09:19 70.5 °F 62.6 °F 30.07 in South 10.0 mph 11.0 mph 76% 0.00 in
09:24 70.8 °F 62.9 °F 30.07 in South 6.0 mph 9.0 mph 76% 0.00 in
09:30 71.2 °F 63.3 °F 30.08 in SSW 8.0 mph 9.0 mph 76% 0.00 in
09:35 71.3 °F 62.6 °F 30.08 in SE 11.0 mph 12.0 mph 74% 0.00 in
09:40 71.4 °F 63.1 °F 30.08 in SSW 8.0 mph 11.0 mph 75% 0.00 in
09:45 71.7 °F 62.6 °F 30.08 in SSW 8.0 mph 11.0 mph 73% 0.00 in
09:50 72.2 °F 63.1 °F 30.08 in SE 5.0 mph 9.0 mph 73% 0.00 in
09:55 72.5 °F 63.0 °F 30.08 in SSW 7.0 mph 8.0 mph 72% 0.00 in
10:00 72.6 °F 63.1 °F 30.08 in SSE 9.0 mph 11.0 mph 72% 0.00 in
10:01 72.6 °F 62.7 °F 30.08 in SE 9.0 mph 11.0 mph 71% 0.00 in
10:06 72.6 °F 62.7 °F 30.09 in SE 9.0 mph 12.0 mph 71% 0.00 in
10:11 72.6 °F 63.1 °F 30.09 in SE 6.0 mph 11.0 mph 72% 0.00 in
10:16 73.1 °F 62.7 °F 30.09 in South 6.0 mph 8.0 mph 70% 0.00 in
10:21 73.5 °F 63.5 °F 30.09 in ESE 3.0 mph 8.0 mph 71% 0.00 in
10:26 73.7 °F 62.5 °F 30.09 in SSE 6.0 mph 9.0 mph 68% 0.00 in
10:31 73.8 °F 62.2 °F 30.09 in SE 7.0 mph 13.0 mph 67% 0.00 in
10:36 74.1 °F 63.7 °F 30.09 in SSE 7.0 mph 7.0 mph 70% 0.00 in
10:41 74.2 °F 63.4 °F 30.09 in SSE 5.0 mph 9.0 mph 69% 0.00 in
10:46 74.6 °F 62.9 °F 30.09 in ESE 8.0 mph 9.0 mph 67% 0.00 in
10:51 74.6 °F 62.1 °F 30.09 in SE 7.0 mph 10.0 mph 65% 0.00 in
10:56 74.5 °F 62.8 °F 30.09 in SE 9.0 mph 12.0 mph 67% 0.00 in
11:01 74.3 °F 62.2 °F 30.09 in ESE 11.0 mph 11.0 mph 66% 0.00 in
11:06 74.6 °F 62.9 °F 30.09 in South 4.0 mph 10.0 mph 67% 0.00 in
11:12 75.1 °F 63.8 °F 30.09 in SE 2.0 mph 9.0 mph 68% 0.00 in
11:17 75.6 °F 63.5 °F 30.09 in SSW 3.0 mph 7.0 mph 66% 0.00 in
11:22 76.0 °F 63.0 °F 30.08 in SSW 4.0 mph 7.0 mph 64% 0.00 in
11:27 76.1 °F 64.8 °F 30.08 in South 9.0 mph 10.0 mph 68% 0.00 in
11:32 75.7 °F 63.1 °F 30.08 in ESE 6.0 mph 8.0 mph 65% 0.00 in
11:37 75.9 °F 63.3 °F 30.08 in SSE 5.0 mph 8.0 mph 65% 0.00 in
11:42 75.9 °F 62.4 °F 30.08 in SSE 8.0 mph 8.0 mph 63% 0.00 in
11:47 76.1 °F 62.6 °F 30.08 in SE 5.0 mph 9.0 mph 63% 0.00 in
11:52 76.8 °F 63.7 °F 30.08 in WSW 2.0 mph 5.0 mph 64% 0.00 in
11:57 77.1 °F 63.1 °F 30.08 in SSE 5.0 mph 7.0 mph 62% 0.00 in
12:02 77.2 °F 64.5 °F 30.08 in SSE 3.0 mph 11.0 mph 65% 0.00 in
12:07 77.2 °F 64.1 °F 30.08 in SE 7.0 mph 7.0 mph 64% 0.00 in
12:12 77.6 °F 64.0 °F 30.08 in South 5.0 mph 9.0 mph 63% 0.00 in
12:17 77.7 °F 63.2 °F 30.08 in SW 4.0 mph 5.0 mph 61% 0.00 in
12:22 77.9 °F 63.8 °F 30.08 in East 4.0 mph 7.0 mph 62% 0.00 in
12:27 78.0 °F 63.5 °F 30.08 in WSW 5.0 mph 7.0 mph 61% 0.00 in
12:32 78.4 °F 65.2 °F 30.08 in SSW 5.0 mph 7.0 mph 64% 0.00 in
12:37 78.7 °F 64.6 °F 30.07 in SSE 5.0 mph 7.0 mph 62% 0.00 in
12:42 78.6 °F 65.0 °F 30.07 in SW 3.0 mph 7.0 mph 63% 0.00 in
12:47 79.1 °F 64.5 °F 30.07 in SSE 3.0 mph 6.0 mph 61% 0.00 in
12:52 79.4 °F 65.3 °F 30.07 in SSE 6.0 mph 7.0 mph 62% 0.00 in
12:58 79.6 °F 64.5 °F 30.07 in SE 4.0 mph 6.0 mph 60% 0.00 in
13:03 79.1 °F 63.6 °F 30.07 in East 7.0 mph 9.0 mph 59% 0.00 in
13:08 79.0 °F 63.5 °F 30.07 in WSW 5.0 mph 6.0 mph 59% 0.00 in
13:13 79.6 °F 64.5 °F 30.07 in SSW 4.0 mph 7.0 mph 60% 0.00 in
13:18 79.8 °F 63.2 °F 30.06 in SE 1.0 mph 4.0 mph 57% 0.00 in
13:23 80.1 °F 64.0 °F 30.06 in ESE 1.0 mph 4.0 mph 58% 0.00 in
13:28 80.0 °F 64.4 °F 30.06 in ESE 5.0 mph 7.0 mph 59% 0.00 in
13:33 80.0 °F 63.9 °F 30.05 in SSE 3.0 mph 7.0 mph 58% 0.00 in
13:38 80.5 °F 64.4 °F 30.05 in WNW 1.0 mph 7.0 mph 58% 0.00 in
13:43 80.5 °F 65.3 °F 30.05 in WSW 5.0 mph 5.0 mph 60% 0.00 in
13:48 80.6 °F 65.0 °F 30.05 in Calm   4.0 mph 59% 0.00 in
13:53 81.3 °F 65.1 °F 30.05 in SW 2.0 mph 6.0 mph 58% 0.00 in
13:58 81.7 °F 66.0 °F 30.05 in SW 3.0 mph 5.0 mph 59% 0.00 in
14:03 81.0 °F 64.8 °F 30.05 in SW 4.0 mph 6.0 mph 58% 0.00 in
14:04 80.8 °F 64.7 °F 30.05 in SW 7.0 mph 7.0 mph 58% 0.00 in
14:09 80.8 °F 63.7 °F 30.05 in WSW 6.0 mph 6.0 mph 56% 0.00 in
14:14 80.9 °F 63.8 °F 30.05 in NE 1.0 mph 4.0 mph 56% 0.00 in
14:20 80.8 °F 63.7 °F 30.05 in Calm   4.0 mph 56% 0.00 in
14:25 81.8 °F 67.1 °F 30.05 in SW 3.0 mph 6.0 mph 61% 0.00 in
14:30 82.3 °F 65.6 °F 30.05 in West 4.0 mph 4.0 mph 57% 0.00 in
14:35 81.2 °F 65.0 °F 30.05 in WSW 3.0 mph 7.0 mph 58% 0.00 in
14:40 80.6 °F 64.5 °F 30.04 in WSW 3.0 mph 6.0 mph 58% 0.00 in
14:45 80.3 °F 65.2 °F 30.04 in West 3.0 mph 4.0 mph 60% 0.00 in
14:50 80.4 °F 64.8 °F 30.04 in SW 2.0 mph 5.0 mph 59% 0.00 in
14:55 80.3 °F 64.2 °F 30.04 in SSW 2.0 mph 5.0 mph 58% 0.00 in
15:00 80.3 °F 65.2 °F 30.04 in SSE 2.0 mph 4.0 mph 60% 0.00 in
15:05 80.5 °F 65.8 °F 30.04 in WSW 1.0 mph 4.0 mph 61% 0.00 in
15:10 80.6 °F 65.4 °F 30.04 in SSE 4.0 mph 6.0 mph 60% 0.00 in
15:15 80.4 °F 65.7 °F 30.03 in South 2.0 mph 4.0 mph 61% 0.00 in
15:20 81.1 °F 66.9 °F 30.04 in South 2.0 mph 5.0 mph 62% 0.00 in
15:25 82.0 °F 66.3 °F 30.03 in WSW 2.0 mph 4.0 mph 59% 0.00 in
15:30 82.8 °F 66.0 °F 30.03 in SSE 1.0 mph 4.0 mph 57% 0.00 in
15:35 82.7 °F 64.9 °F 30.03 in WSW 3.0 mph 7.0 mph 55% 0.00 in
15:40 82.2 °F 64.4 °F 30.03 in West 1.0 mph 5.0 mph 55% 0.00 in
15:45 81.7 °F 64.0 °F 30.03 in WNW 2.0 mph 3.0 mph 55% 0.00 in
15:50 81.2 °F 64.0 °F 30.02 in North 1.0 mph 2.0 mph 56% 0.00 in
15:55 81.2 °F 64.0 °F 30.03 in SSW 1.0 mph 3.0 mph 56% 0.00 in
16:00 81.2 °F 64.0 °F 30.02 in ESE 1.0 mph 2.0 mph 56% 0.00 in
16:05 81.0 °F 63.8 °F 30.02 in Calm   2.0 mph 56% 0.00 in
16:10 80.9 °F 63.2 °F 30.02 in East 2.0 mph 4.0 mph 55% 0.00 in
16:15 80.5 °F 63.4 °F 30.02 in East 2.0 mph 5.0 mph 56% 0.00 in
16:20 80.2 °F 62.6 °F 30.02 in Calm   3.0 mph 55% 0.00 in
16:25 80.4 °F 63.8 °F 30.01 in East 2.0 mph 2.0 mph 57% 0.00 in
16:30 81.0 °F 64.8 °F 30.01 in ESE 1.0 mph 2.0 mph 58% 0.00 in
16:36 81.4 °F 63.7 °F 30.01 in SW 2.0 mph 3.0 mph 55% 0.00 in
16:41 81.3 °F 63.1 °F 30.01 in SE 3.0 mph 3.0 mph 54% 0.00 in
16:46 81.2 °F 61.4 °F 30.01 in WSW 1.0 mph 1.0 mph 51% 0.00 in
16:51 81.7 °F 62.9 °F 30.01 in NW 2.0 mph 4.0 mph 53% 0.00 in
16:56 81.9 °F 65.2 °F 30.01 in WSW 2.0 mph 3.0 mph 57% 0.00 in
17:01 82.3 °F 64.5 °F 30.01 in WSW 3.0 mph 4.0 mph 55% 0.00 in
17:06 82.7 °F 63.8 °F 30.01 in West 2.0 mph 3.0 mph 53% 0.00 in
17:11 83.3 °F 65.5 °F 30.01 in NW 2.0 mph 2.0 mph 55% 0.00 in
17:16 84.0 °F 63.9 °F 30.01 in WSW 1.0 mph 2.0 mph 51% 0.00 in
17:21 84.3 °F 65.9 °F 30.01 in WNW 2.0 mph 3.0 mph 54% 0.00 in
17:26 84.2 °F 63.6 °F 30.00 in SE 1.0 mph 2.0 mph 50% 0.00 in
17:31 84.7 °F 64.6 °F 30.00 in Calm   2.0 mph 51% 0.00 in
17:36 84.9 °F 63.0 °F 30.00 in SSE 2.0 mph 5.0 mph 48% 0.00 in
17:41 84.6 °F 63.3 °F 30.00 in SW 1.0 mph 3.0 mph 49% 0.00 in
17:46 84.7 °F 65.1 °F 30.00 in SW 1.0 mph 4.0 mph 52% 0.00 in
17:51 84.7 °F 62.3 °F 30.00 in SSW 2.0 mph 4.0 mph 47% 0.00 in
17:56 84.5 °F 62.1 °F 30.00 in SE 1.0 mph 4.0 mph 47% 0.00 in
18:01 83.8 °F 62.0 °F 29.99 in SSE 2.0 mph 3.0 mph 48% 0.00 in
18:06 83.1 °F 62.0 °F 30.00 in SSE 1.0 mph 3.0 mph 49% 0.00 in
18:11 82.8 °F 61.1 °F 29.99 in SW 1.0 mph 1.0 mph 48% 0.00 in
18:17 82.2 °F 62.8 °F 29.99 in West 1.0 mph 1.0 mph 52% 0.00 in
18:22 81.9 °F 63.6 °F 29.99 in Calm     54% 0.00 in
18:27 81.9 °F 63.6 °F 29.99 in Calm     54% 0.00 in
18:32 82.0 °F 64.3 °F 29.99 in Calm     55% 0.00 in
18:37 82.3 °F 65.1 °F 29.99 in Calm     56% 0.00 in
18:42 82.2 °F 65.5 °F 29.99 in Calm   1.0 mph 57% 0.00 in
18:47 81.6 °F 65.9 °F 29.99 in Calm   1.0 mph 59% 0.00 in
18:52 81.4 °F 64.7 °F 29.99 in Calm   1.0 mph 57% 0.00 in
18:57 81.6 °F 63.4 °F 29.98 in West 1.0 mph 1.0 mph 54% 0.00 in
19:02 82.2 °F 65.0 °F 29.98 in Calm   1.0 mph 56% 0.00 in
19:07 82.5 °F 63.1 °F 29.99 in NW 2.0 mph 2.0 mph 52% 0.00 in
19:12 82.7 °F 65.4 °F 29.99 in Calm   1.0 mph 56% 0.00 in
19:17 83.0 °F 65.2 °F 29.99 in Calm   1.0 mph 55% 0.00 in
19:22 82.7 °F 64.4 °F 29.99 in NNE 2.0 mph 2.0 mph 54% 0.00 in
19:27 82.0 °F 65.3 °F 30.00 in NNE 1.0 mph 2.0 mph 57% 0.00 in
19:32 81.7 °F 65.0 °F 30.00 in NNE 1.0 mph 2.0 mph 57% 0.00 in
19:37 81.6 °F 65.4 °F 30.00 in NE 2.0 mph 2.0 mph 58% 0.00 in
19:42 81.4 °F 65.7 °F 30.00 in NE 1.0 mph 2.0 mph 59% 0.00 in
19:47 81.2 °F 65.0 °F 30.00 in NE 2.0 mph 2.0 mph 58% 0.00 in
19:52 80.9 °F 65.2 °F 30.00 in NE 2.0 mph 3.0 mph 59% 0.00 in
19:57 80.7 °F 66.0 °F 30.00 in NE 2.0 mph 2.0 mph 61% 0.00 in
20:02 80.5 °F 65.8 °F 30.00 in Calm   1.0 mph 61% 0.00 in
20:07 80.3 °F 66.1 °F 30.01 in Calm   1.0 mph 62% 0.00 in
20:12 79.8 °F 67.0 °F 30.01 in Calm   1.0 mph 65% 0.00 in
20:17 79.1 °F 66.3 °F 30.01 in Calm     65% 0.00 in
20:22 78.5 °F 66.6 °F 30.01 in Calm     67% 0.00 in
20:27 77.8 °F 66.4 °F 30.01 in Calm     68% 0.00 in
20:32 77.0 °F 65.2 °F 30.01 in Calm     67% 0.00 in
20:37 76.8 °F 65.4 °F 30.02 in Calm     68% 0.00 in
20:43 76.6 °F 66.1 °F 30.02 in Calm     70% 0.00 in
20:48 75.8 °F 65.7 °F 30.02 in Calm     71% 0.00 in
20:53 75.2 °F 66.0 °F 30.02 in Calm     73% 0.00 in
20:58 74.6 °F 66.2 °F 30.02 in Calm     75% 0.00 in
21:03 74.3 °F 66.2 °F 30.02 in NE 6.0 mph 8.0 mph 76% 0.00 in
21:08 74.2 °F 66.2 °F 30.02 in NNE 5.0 mph 6.0 mph 76% 0.00 in
21:13 74.4 °F 66.0 °F 30.02 in NE 4.0 mph 7.0 mph 75% 0.00 in
21:18 74.6 °F 65.8 °F 30.02 in NE 2.0 mph 5.0 mph 74% 0.00 in
21:23 74.5 °F 65.7 °F 30.02 in NE 2.0 mph 5.0 mph 74% 0.00 in
21:28 74.2 °F 65.4 °F 30.02 in NNE 2.0 mph 3.0 mph 74% 0.00 in
21:33 74.0 °F 65.2 °F 30.02 in NNE 2.0 mph 5.0 mph 74% 0.00 in
21:38 73.8 °F 64.2 °F 30.03 in ENE 2.0 mph 4.0 mph 72% 0.00 in
21:43 73.6 °F 64.0 °F 30.03 in NE 3.0 mph 4.0 mph 72% 0.00 in
21:48 73.4 °F 63.8 °F 30.03 in NE 3.0 mph 4.0 mph 72% 0.00 in
21:53 73.3 °F 63.7 °F 30.02 in East 1.0 mph 3.0 mph 72% 0.00 in
21:59 73.1 °F 63.5 °F 30.03 in East 1.0 mph 2.0 mph 72% 0.00 in
22:04 72.8 °F 63.7 °F 30.03 in NNE 1.0 mph 3.0 mph 73% 0.00 in
22:09 72.4 °F 64.0 °F 30.03 in NNE 1.0 mph 2.0 mph 75% 0.00 in
22:14 72.1 °F 64.1 °F 30.02 in Calm   1.0 mph 76% 0.00 in
22:19 71.8 °F 63.8 °F 30.02 in Calm     76% 0.00 in
22:24 71.3 °F 63.7 °F 30.02 in SSE 1.0 mph 1.0 mph 77% 0.00 in
22:29 70.6 °F 63.4 °F 30.02 in Calm   2.0 mph 78% 0.00 in
22:34 70.2 °F 63.4 °F 30.03 in Calm     79% 0.00 in
22:39 69.9 °F 63.5 °F 30.02 in Calm     80% 0.00 in
22:44 69.5 °F 63.4 °F 30.02 in ESE 2.0 mph 2.0 mph 81% 0.00 in
22:49 69.9 °F 63.1 °F 30.02 in Calm   1.0 mph 79% 0.00 in
22:54 69.9 °F 63.5 °F 30.02 in SSE 1.0 mph 2.0 mph 80% 0.00 in
22:59 69.5 °F 63.8 °F 30.02 in SW 1.0 mph 1.0 mph 82% 0.00 in
23:04 69.1 °F 63.7 °F 30.02 in SSW 1.0 mph 1.0 mph 83% 0.00 in
23:09 68.7 °F 63.3 °F 30.02 in Calm   1.0 mph 83% 0.00 in
23:14 68.5 °F 63.1 °F 30.02 in Calm   2.0 mph 83% 0.00 in
23:19 68.4 °F 63.0 °F 30.02 in ESE 1.0 mph 1.0 mph 83% 0.00 in
23:24 68.4 °F 62.7 °F 30.02 in Calm   1.0 mph 82% 0.00 in
23:29 68.2 °F 62.8 °F 30.03 in Calm   1.0 mph 83% 0.00 in
23:34 67.9 °F 62.5 °F 30.03 in SW 1.0 mph 1.0 mph 83% 0.00 in
23:39 67.7 °F 62.7 °F 30.03 in NNE 3.0 mph 3.0 mph 84% 0.00 in
23:44 67.6 °F 61.9 °F 30.03 in NNE 2.0 mph 3.0 mph 82% 0.00 in
23:49 67.3 °F 62.0 °F 30.04 in North 2.0 mph 4.0 mph 83% 0.00 in
23:54 67.2 °F 62.2 °F 30.04 in NNW 1.0 mph 2.0 mph 84% 0.00 in
23:59 67.1 °F 62.1 °F 30.04 in North 2.0 mph 2.0 mph 84% 0.00 in
Compliments of Weather Underground